EW4921 Weather Reports


time (UTC)temp
C
wind
direction
speed
KPH
gust
KPH
rain 1hr
cm
rain 24hr
cm
rain mn
cm
humidity
%
barometer
mb
20260507015523 18 227 0.0 4.8 0.00 0.00 0.00 62 1016.4
20260507015022 18 302 0.0 0.0 0.00 0.00 0.00 62 1016.3
20260507014523 18 302 0.0 4.8 0.00 0.00 0.00 61 1016.2
20260507014020 18 302 0.0 12.9 0.00 0.00 0.00 60 1016.2
20260507013518 18 296 1.6 12.9 0.00 0.00 0.00 60 1016.2
20260507013036 18 326 1.6 8.0 0.00 0.00 0.00 60 1016.2
20260507012536 18 315 0.0 11.3 0.00 0.00 0.00 61 1016.3
20260507012027 18 240 3.2 17.7 0.00 0.00 0.00 60 1016.2
20260507011523 19 217 3.2 17.7 0.00 0.00 0.00 59 1016.2
20260507011039 19 237 3.2 12.9 0.00 0.00 0.00 59 1016.2
20260507010602 19 310 3.2 9.7 0.00 0.00 0.00 59 1016.2
20260507010026 20 360 3.2 9.7 0.00 0.00 0.00 59 1016.1
20260507005518 20 196 0.0 11.3 0.00 0.00 0.00 59 1016.2
20260507005031 20 272 1.6 11.3 0.00 0.00 0.00 59 1016.2
20260507004534 20 341 3.2 8.0 0.00 0.00 0.00 59 1016.2
20260507004039 20 277 3.2 12.9 0.00 0.00 0.00 58 1016.3
20260507003519 20 240 3.2 9.7 0.00 0.00 0.00 58 1016.7
20260507003036 20 262 3.2 11.3 0.00 0.00 0.00 58 1016.3
20260507002535 20 19 3.2 9.7 0.00 0.00 0.00 58 1016.3
20260507002047 20 339 3.2 9.7 0.00 0.00 0.00 58 1016.2
20260507001544 21 174 4.8 11.3 0.00 0.00 0.00 58 1016.2
20260507001016 21 248 3.2 12.9 0.00 0.00 0.00 58 1016.2
20260507000559 21 229 1.6 12.9 0.00 0.00 0.00 58 1016.2
20260507000045 21 340 4.8 9.7 0.00 0.00 0.00 58 1016.3
20260506235526 21 255 4.8 12.9 0.00 0.00 0.00 58 1016.2
20260506235016 21 240 3.2 12.9 0.00 0.00 0.00 57 1016.2
20260506234537 21 337 4.8 19.3 0.00 0.00 0.00 58 1016.2
20260506234034 21 339 4.8 19.3 0.00 0.00 0.00 57 1016.2
20260506233556 21 252 4.8 14.5 0.00 0.00 0.00 57 1016.1
20260506233045 21 333 4.8 14.5 0.00 0.00 0.00 57 1016.1
20260506232514 21 191 1.6 14.5 0.00 0.00 0.00 58 1016.2
20260506232026 21 247 4.8 14.5 0.00 0.00 0.00 58 1016.2
20260506231521 21 286 4.8 19.3 0.00 0.00 0.00 58 1016.3
20260506231033 21 319 4.8 19.3 0.00 0.00 0.00 58 1016.3
20260506230557 21 336 4.8 14.5 0.00 0.00 0.00 57 1016.3
20260506230019 21 198 3.2 16.1 0.00 0.00 0.00 57 1016.3
20260506225515 21 335 3.2 16.1 0.00 0.00 0.00 57 1016.4
20260506225029 22 333 4.8 14.5 0.00 0.00 0.00 56 1016.4
20260506224552 22 210 4.8 14.5 0.00 0.00 0.00 56 1016.3
20260506224023 22 341 4.8 16.1 0.00 0.00 0.00 56 1016.5
20260506223523 22 242 6.4 14.5 0.00 0.00 0.00 56 1016.6
20260506223032 22 315 4.8 12.9 0.00 0.00 0.00 56 1016.6
20260506222555 22 297 1.6 11.3 0.00 0.00 0.00 57 1016.6
20260506222024 22 351 1.6 9.7 0.00 0.00 0.00 57 1016.6
20260506221524 22 360 1.6 16.1 0.00 0.00 0.00 56 1016.8
20260506221023 22 360 1.6 16.1 0.00 0.00 0.00 56 1017.0
20260506220606 22 202 3.2 12.9 0.00 0.00 0.00 56 1017.0
20260506220018 22 298 3.2 14.5 0.00 0.00 0.00 56 1017.1
20260506215559 22 319 4.8 14.5 0.00 0.00 0.00 55 1017.1
20260506215027 22 328 4.8 16.1 0.00 0.00 0.00 55 1017.2
20260506214523 22 268 6.4 16.1 0.00 0.00 0.00 56 1017.3
20260506214057 22 325 0.0 6.4 0.00 0.00 0.00 56 1017.3
20260506213536 22 306 0.0 8.0 0.00 0.00 0.00 57 1017.4
20260506213028 22 344 1.6 12.9 0.00 0.00 0.00 59 1017.4
20260506212529 22 331 1.6 9.7 0.00 0.00 0.00 58 1017.4
20260506212039 22 337 6.4 14.5 0.00 0.00 0.00 57 1017.4
20260506211536 22 241 1.6 14.5 0.00 0.00 0.00 59 1017.4
20260506211027 22 341 4.8 16.1 0.00 0.00 0.00 57 1017.4
20260506210551 22 200 3.2 16.1 0.00 0.00 0.00 57 1017.4
20260506210016 22 293 3.2 14.5 0.00 0.00 0.00 57 1017.4
20260506205538 23 279 4.8 12.9 0.00 0.00 0.00 57 1017.4
20260506205023 22 205 0.0 12.9 0.00 0.00 0.00 59 1017.4
20260506204522 22 355 0.0 12.9 0.00 0.00 0.00 60 1017.5
20260506204021 22 334 0.0 6.4 0.00 0.00 0.00 59 1017.4
20260506203514 22 331 0.0 12.9 0.00 0.00 0.00 58 1017.5
20260506203052 22 39 0.0 12.9 0.00 0.00 0.00 59 1017.4
20260506202536 22 347 3.2 11.3 0.00 0.00 0.00 57 1017.6
20260506202024 22 292 1.6 11.3 0.00 0.00 0.00 58 1017.4
20260506201544 23 329 4.8 9.7 0.00 0.00 0.00 55 1017.6
20260506201023 22 315 1.6 9.7 0.00 0.00 0.00 55 1017.5
20260506200548 23 34 1.6 8.0 0.00 0.00 0.00 57 1017.6
20260506200031 22 229 1.6 12.9 0.00 0.00 0.00 55 1017.6
20260506195520 22 339 3.2 14.5 0.00 0.00 0.00 55 1017.6
20260506195020 22 221 1.6 14.5 0.00 0.00 0.00 53 1017.7
20260506194516 22 200 3.2 12.9 0.00 0.00 0.00 52 1017.7
20260506194013 22 252 4.8 12.9 0.00 0.00 0.00 52 1017.6
20260506193534 22 124 0.0 4.8 0.00 0.00 0.00 53 1017.7
20260506193023 22 308 0.0 4.8 0.00 0.00 0.00 53 1017.7
20260506192519 22 286 0.0 6.4 0.00 0.00 0.00 53 1017.8
20260506192030 22 211 0.0 6.4 0.00 0.00 0.00 54 1017.8
20260506191521 22 192 0.0 4.8 0.00 0.00 0.00 54 1017.9
20260506191033 21 142 0.0 6.4 0.00 0.00 0.00 51 1017.9
20260506190553 22 225 0.0 6.4 0.00 0.00 0.00 51 1018.0
20260506190055 22 237 0.0 6.4 0.00 0.00 0.00 53 1018.0
20260506185536 22 298 1.6 11.3 0.00 0.00 0.00 52 1018.0
20260506185048 22 194 1.6 11.3 0.00 0.00 0.00 53 1018.0
20260506184545 21 190 1.6 16.1 0.00 0.00 0.00 51 1018.0
20260506184017 21 225 4.8 16.1 0.00 0.00 0.00 53 1018.1
20260506183536 21 207 0.0 9.7 0.00 0.00 0.00 53 1018.1
20260506183024 21 287 0.0 9.7 0.00 0.00 0.00 52 1018.0
20260506182546 21 189 0.0 6.4 0.00 0.00 0.00 55 1018.1
20260506182018 20 196 0.0 9.7 0.00 0.00 0.00 54 1018.2
20260506181536 20 186 0.0 9.7 0.00 0.00 0.00 55 1018.3
20260506181043 20 229 0.0 6.4 0.00 0.00 0.00 55 1018.4
20260506180548 20 239 0.0 8.0 0.00 0.00 0.00 58 1018.5
20260506180017 20 218 3.2 8.0 0.00 0.00 0.00 56 1018.5
20260506175519 20 344 1.6 11.3 0.00 0.00 0.00 56 1018.4
20260506175030 20 261 1.6 11.3 0.00 0.00 0.00 54 1018.4
20260506174517 20 221 1.6 8.0 0.00 0.00 0.00 55 1018.4
20260506174036 20 202 0.0 6.4 0.00 0.00 0.00 58 1018.4
20260506173557 19 215 1.6 8.0 0.00 0.00 0.00 58 1018.5
20260506173023 19 186 1.6 6.4 0.00 0.00 0.00 58 1018.5
20260506172525 19 220 0.0 6.4 0.00 0.00 0.00 58 1018.5
20260506172032 18 221 1.6 6.4 0.00 0.00 0.00 59 1018.6
20260506171533 18 257 1.6 6.4 0.00 0.00 0.00 60 1018.5
20260506171025 18 204 0.0 0.0 0.00 0.00 0.00 60 1018.4
20260506170540 18 203 0.0 0.0 0.00 0.00 0.00 60 1018.5
20260506170051 18 203 0.0 0.0 0.00 0.00 0.00 61 1018.5
20260506165530 18 205 0.0 6.4 0.00 0.00 0.00 61 1018.6
20260506165017 18 202 3.2 6.4 0.00 0.00 0.00 62 1018.5
20260506164517 17 192 0.0 8.0 0.00 0.00 0.00 62 1018.5
20260506164013 17 197 3.2 8.0 0.00 0.00 0.00 64 1018.4
20260506163534 17 211 0.0 0.0 0.00 0.00 0.00 64 1018.4
20260506163044 17 209 0.0 6.4 0.00 0.00 0.00 66 1018.5
20260506162538 16 214 3.2 6.4 0.00 0.00 0.00 67 1018.5
20260506162014 16 215 0.0 6.4 0.00 0.00 0.00 70 1018.5
20260506161535 16 200 1.6 4.8 0.00 0.00 0.00 69 1018.5
20260506161045 15 231 0.0 6.4 0.00 0.00 0.00 72 1018.4
20260506160547 15 180 1.6 6.4 0.00 0.00 0.00 75 1018.4
20260506160016 14 167 1.6 8.0 0.00 0.00 0.00 80 1018.4
20260506155519 13 186 0.0 6.4 0.00 0.00 0.00 84 1018.6
20260506155031 13 186 3.2 6.4 0.00 0.00 0.00 90 1018.7
20260506154531 13 215 0.0 6.4 0.00 0.00 0.00 93 1018.6
20260506154022 12 213 3.2 6.4 0.00 0.00 0.00 94 1018.5
20260506153523 12 217 0.0 3.2 0.00 0.00 0.00 94 1018.5
20260506153016 12 217 0.0 1.6 0.00 0.00 0.00 94 1018.5
20260506152517 11 217 0.0 0.0 0.00 0.00 0.00 94 1018.5
20260506152016 11 217 0.0 0.0 0.00 0.00 0.00 94 1018.6
20260506151536 10 217 0.0 0.0 0.00 0.00 0.00 94 1018.6
20260506151027 10 217 0.0 0.0 0.00 0.00 0.00 94 1018.5
20260506150604 9 217 0.0 0.0 0.00 0.00 0.00 93 1018.5
20260506150025 8 217 0.0 0.0 0.00 0.00 0.00 93 1018.6
20260506145523 8 217 0.0 0.0 0.00 0.00 0.00 93 1018.6
20260506145021 7 217 0.0 0.0 0.00 0.00 0.00 92 1018.5
20260506144522 7 217 0.0 0.0 0.00 0.00 0.00 92 1018.5
20260506144015 7 217 0.0 0.0 0.00 0.00 0.00 92 1018.5
20260506143536 7 217 0.0 0.0 0.00 0.00 0.00 92 1018.5
20260506143043 7 217 0.0 0.0 0.00 0.00 0.00 92 1018.5
20260506142516 7 217 0.0 0.0 0.00 0.00 0.00 92 1018.4
20260506142015 7 217 0.0 0.0 0.00 0.00 0.00 92 1018.5
20260506141537 7 217 0.0 0.0 0.00 0.00 0.00 92 1018.5
20260506141023 6 217 0.0 0.0 0.00 0.00 0.00 92 1018.4
20260506140615 6 217 0.0 0.0 0.00 0.00 0.00 92 1018.4
20260506140018 6 217 0.0 0.0 0.00 0.00 0.00 91 1018.3
20260506135540 6 217 0.0 0.0 0.00 0.00 0.00 91 1018.4
20260506135031 6 217 0.0 0.0 0.00 0.00 0.00 91 1018.4
20260506134555 6 217 0.0 0.0 0.00 0.00 0.00 91 1018.3
20260506134024 6 217 0.0 0.0 0.00 0.00 0.00 91 1018.3
20260506133521 6 217 0.0 0.0 0.00 0.00 0.00 91 1018.1
20260506133054 6 217 0.0 0.0 0.00 0.00 0.00 91 1018.1
20260506132533 6 217 0.0 0.0 0.00 0.00 0.00 91 1018.0
20260506132025 6 217 0.0 0.0 0.00 0.00 0.00 91 1018.1
20260506131548 6 217 0.0 0.0 0.00 0.00 0.00 91 1018.0
20260506131036 6 217 0.0 0.0 0.00 0.00 0.00 91 1017.9
20260506130603 6 217 0.0 0.0 0.00 0.00 0.00 91 1018.0
20260506130014 6 217 0.0 0.0 0.00 0.00 0.00 91 1017.9
20260506125532 6 217 0.0 0.0 0.00 0.00 0.00 91 1017.8
20260506125021 6 217 0.0 0.0 0.00 0.00 0.00 91 1017.7
20260506124518 6 217 0.0 0.0 0.00 0.00 0.00 91 1017.7
20260506124030 6 217 0.0 0.0 0.00 0.00 0.00 91 1017.6
20260506123531 6 217 0.0 1.6 0.00 0.00 0.00 91 1017.6
20260506123023 6 217 0.0 1.6 0.00 0.00 0.00 91 1017.6
20260506122525 6 230 0.0 0.0 0.00 0.00 0.00 91 1017.6
20260506122017 6 230 0.0 0.0 0.00 0.00 0.00 90 1017.6
20260506121533 6 230 0.0 0.0 0.00 0.00 0.00 90 1017.5
20260506121026 6 230 0.0 0.0 0.00 0.00 0.00 90 1017.5
20260506120550 6 230 0.0 0.0 0.00 0.00 0.00 90 1017.5
20260506120043 6 230 0.0 0.0 0.00 0.00 0.00 90 1017.6
20260506115522 6 230 0.0 0.0 0.00 0.00 0.00 90 1017.5
20260506115013 6 230 0.0 0.0 0.00 0.00 0.00 90 1017.5
20260506114532 6 230 0.0 0.0 0.00 0.00 0.00 90 1017.6
20260506114023 6 230 0.0 0.0 0.00 0.00 0.00 90 1017.5
20260506113524 7 230 0.0 0.0 0.00 0.00 0.00 90 1017.5
20260506113022 7 230 0.0 0.0 0.00 0.00 0.00 90 1017.5
20260506112520 7 230 0.0 0.0 0.00 0.00 0.00 90 1017.4
20260506112027 7 230 0.0 0.0 0.00 0.00 0.00 90 1017.4
20260506111527 7 230 0.0 0.0 0.00 0.00 0.00 90 1017.4
20260506111026 7 230 0.0 0.0 0.00 0.00 0.00 90 1017.3
20260506110543 7 230 0.0 0.0 0.00 0.00 0.00 90 1017.4
20260506110031 7 230 0.0 0.0 0.00 0.00 0.00 90 1017.4
20260506105532 7 230 0.0 0.0 0.00 0.00 0.00 90 1017.4
20260506105019 7 230 0.0 0.0 0.00 0.00 0.00 90 1017.5
20260506104515 7 230 0.0 0.0 0.00 0.00 0.00 90 1017.4
20260506104027 7 230 0.0 0.0 0.00 0.00 0.00 89 1017.5
20260506103526 7 230 0.0 0.0 0.00 0.00 0.00 89 1017.5
20260506103019 7 230 0.0 0.0 0.00 0.00 0.00 89 1017.4
20260506102518 7 230 0.0 0.0 0.00 0.00 0.00 89 1017.5
20260506102054 7 230 0.0 0.0 0.00 0.00 0.00 89 1017.5
20260506101514 7 230 0.0 0.0 0.00 0.00 0.00 89 1017.6
20260506101027 7 230 0.0 0.0 0.00 0.00 0.00 89 1017.6
20260506100601 7 230 0.0 0.0 0.00 0.00 0.00 89 1017.6
20260506100047 7 230 0.0 0.0 0.00 0.00 0.00 89 1017.6
20260506095544 7 230 0.0 0.0 0.00 0.00 0.00 89 1017.6
20260506095021 7 230 0.0 0.0 0.00 0.00 0.00 89 1017.6
20260506094515 7 230 0.0 0.0 0.00 0.00 0.00 89 1017.7
20260506094032 7 230 0.0 0.0 0.00 0.00 0.00 89 1017.7
20260506093554 7 230 0.0 0.0 0.00 0.00 0.00 88 1017.7
20260506093020 7 230 0.0 0.0 0.00 0.00 0.00 88 1017.7
20260506092522 7 230 0.0 0.0 0.00 0.00 0.00 88 1017.7
20260506092033 7 230 0.0 0.0 0.00 0.00 0.00 88 1017.7
20260506091534 7 230 0.0 0.0 0.00 0.00 0.00 88 1017.8
20260506091047 7 230 0.0 0.0 0.00 0.00 0.00 88 1017.9
20260506090549 7 230 0.0 0.0 0.00 0.00 0.00 88 1017.9
20260506090031 8 230 0.0 0.0 0.00 0.00 0.00 88 1017.9
20260506085533 8 230 0.0 0.0 0.00 0.00 0.00 88 1017.9
20260506085022 8 230 0.0 0.0 0.00 0.00 0.00 88 1017.9
20260506084538 8 230 0.0 0.0 0.00 0.00 0.00 88 1017.9
20260506084049 8 230 0.0 0.0 0.00 0.00 0.00 87 1018.0
20260506083523 8 230 0.0 0.0 0.00 0.00 0.00 87 1018.0
20260506083022 8 230 0.0 0.0 0.00 0.00 0.00 87 1018.0
20260506082517 8 230 0.0 0.0 0.00 0.00 0.00 87 1018.1
20260506082014 8 230 0.0 0.0 0.00 0.00 0.00 87 1018.0
20260506081536 8 230 0.0 0.0 0.00 0.00 0.00 87 1018.2
20260506081028 8 230 0.0 0.0 0.00 0.00 0.00 87 1018.0
20260506080540 8 230 0.0 0.0 0.00 0.00 0.00 87 1017.9
20260506073523 9 230 0.0 0.0 0.00 0.00 0.00 87 1018.0
20260506073021 9 230 0.0 0.0 0.00 0.00 0.00 86 1018.0
20260506072523 9 230 0.0 0.0 0.00 0.00 0.00 87 1018.0
20260506072023 9 230 0.0 0.0 0.00 0.00 0.00 86 1018.0
20260506071520 9 230 0.0 0.0 0.00 0.00 0.00 86 1018.0
20260506071040 9 230 0.0 0.0 0.00 0.00 0.00 86 1018.0
20260506070605 9 230 0.0 0.0 0.00 0.00 0.00 86 1017.8
20260506062041 10 230 0.0 0.0 0.00 0.00 0.00 85 1017.2
20260506061535 10 230 0.0 0.0 0.00 0.00 0.00 85 1017.2
20260506061025 10 230 0.0 0.0 0.00 0.00 0.00 85 1017.2
20260506060548 10 230 0.0 0.0 0.00 0.00 0.00 85 1017.2
20260506051024 11 230 0.0 0.0 0.00 0.00 0.00 81 1016.9
20260506050549 11 230 0.0 0.0 0.00 0.00 0.00 81 1016.9
20260506045024 11 230 0.0 0.0 0.00 0.00 0.00 79 1016.6
20260506044522 11 230 0.0 0.0 0.00 0.00 0.00 79 1016.6
20260506044021 11 230 0.0 0.0 0.00 0.00 0.00 78 1016.4
20260506043523 12 230 0.0 0.0 0.00 0.00 0.00 77 1016.5
20260506043018 12 230 0.0 0.0 0.00 0.00 0.00 77 1016.4
20260506042520 12 230 0.0 0.0 0.00 0.00 0.00 77 1016.4
20260506042019 12 230 0.0 0.0 0.00 0.00 0.00 77 1016.2
20260506041520 12 230 0.0 0.0 0.00 0.00 0.00 76 1016.3
20260506041033 12 230 0.0 0.0 0.00 0.00 0.00 76 1016.2
20260506040556 12 230 0.0 0.0 0.00 0.00 0.00 75 1016.2
20260506040017 13 230 0.0 0.0 0.00 0.00 0.00 75 1016.2
20260506035516 13 230 0.0 0.0 0.00 0.00 0.00 75 1016.1
20260506035048 13 230 0.0 0.0 0.00 0.00 0.00 75 1016.0
20260506034521 13 230 0.0 0.0 0.00 0.00 0.00 74 1015.9
20260506034019 13 230 0.0 0.0 0.00 0.00 0.00 74 1016.0
20260506033520 13 230 0.0 0.0 0.00 0.00 0.00 73 1015.9
20260506033014 13 230 0.0 0.0 0.00 0.00 0.00 73 1015.8
20260506032517 13 230 0.0 0.0 0.00 0.00 0.00 72 1015.5
20260506032014 14 230 0.0 0.0 0.00 0.00 0.00 72 1015.4
20260506031556 14 230 0.0 0.0 0.00 0.00 0.00 72 1015.4
20260506031026 14 230 0.0 0.0 0.00 0.00 0.00 72 1015.3
20260506030547 14 230 0.0 0.0 0.00 0.00 0.00 71 1015.3
20260506030019 14 230 0.0 0.0 0.00 0.00 0.00 71 1015.2
20260506025540 14 230 0.0 0.0 0.00 0.00 0.00 71 1015.1
20260506025026 15 230 0.0 0.0 0.00 0.00 0.00 71 1015.1
20260506024547 15 230 0.0 0.0 0.00 0.00 0.00 71 1015.0
20260506024022 15 230 0.0 0.0 0.00 0.00 0.00 70 1015.1
20260506023521 15 230 0.0 0.0 0.00 0.00 0.00 70 1015.0
20260506023019 15 230 0.0 0.0 0.00 0.00 0.00 70 1014.9
20260506022541 15 231 0.0 0.0 0.00 0.00 0.00 70 1014.9
20260506022059 15 231 0.0 0.0 0.00 0.00 0.00 69 1014.8
20260506021537 15 231 0.0 0.0 0.00 0.00 0.00 69 1014.8
20260506021024 15 231 0.0 0.0 0.00 0.00 0.00 69 1014.8
20260506020548 15 231 0.0 0.0 0.00 0.00 0.00 68 1014.7
20260506020022 15 231 0.0 0.0 0.00 0.00 0.00 68 1014.6